TimeMDT,TemperatureF,Dew PointF,Humidity,Sea Level PressureIn,VisibilityMPH,Wind Direction,Wind SpeedMPH,Gust SpeedMPH,PrecipitationIn,Events,Conditions,WindDirDegrees,DateUTC
12:15 AM,51.8,26.6,38,30.08,10.0,NNE,9.2,-,N/A,,Clear,20,2013-05-23 06:15:00
12:35 AM,53.6,26.6,35,30.09,10.0,NNW,6.9,-,N/A,,Clear,340,2013-05-23 06:35:00
12:55 AM,51.8,26.6,38,30.09,10.0,NNE,12.7,-,N/A,,Clear,20,2013-05-23 06:55:00
1:15 AM,50.0,26.6,40,30.09,10.0,NNE,9.2,-,N/A,,Clear,20,2013-05-23 07:15:00
1:35 AM,44.6,26.6,49,30.09,10.0,North,9.2,-,N/A,,Clear,350,2013-05-23 07:35:00
1:55 AM,44.6,26.6,49,30.09,10.0,NNW,9.2,-,N/A,,Clear,340,2013-05-23 07:55:00
2:15 AM,44.6,26.6,49,30.09,10.0,North,11.5,-,N/A,,Clear,350,2013-05-23 08:15:00
2:35 AM,44.6,26.6,49,30.10,10.0,North,6.9,-,N/A,,Clear,350,2013-05-23 08:35:00
2:55 AM,44.6,26.6,49,30.10,10.0,NNW,3.5,-,N/A,,Clear,340,2013-05-23 08:55:00
3:15 AM,42.8,26.6,53,30.10,10.0,North,6.9,-,N/A,,Clear,350,2013-05-23 09:15:00
3:35 AM,42.8,26.6,53,30.11,10.0,Calm,Calm,-,N/A,,Clear,0,2013-05-23 09:35:00
3:55 AM,41.0,26.6,57,30.11,10.0,North,4.6,-,N/A,,Clear,360,2013-05-23 09:55:00
4:15 AM,41.0,26.6,57,30.12,10.0,North,8.1,-,N/A,,Clear,360,2013-05-23 10:15:00
4:35 AM,41.0,26.6,57,30.12,10.0,Calm,Calm,-,N/A,,Clear,0,2013-05-23 10:35:00
4:55 AM,39.2,26.6,61,30.13,10.0,North,5.8,-,N/A,,Clear,360,2013-05-23 10:55:00
5:15 AM,39.2,26.6,61,30.12,10.0,ENE,3.5,-,N/A,,Clear,60,2013-05-23 11:15:00
5:35 AM,37.4,26.6,65,30.13,10.0,Calm,Calm,-,N/A,,Clear,0,2013-05-23 11:35:00
5:55 AM,37.4,24.8,60,30.14,10.0,Calm,Calm,-,N/A,,Clear,0,2013-05-23 11:55:00
6:15 AM,35.6,24.8,65,30.14,10.0,Calm,Calm,-,N/A,,Clear,0,2013-05-23 12:15:00
6:35 AM,39.2,26.6,61,30.15,10.0,Calm,Calm,-,N/A,,Clear,0,2013-05-23 12:35:00
6:55 AM,37.4,26.6,65,30.16,10.0,SW,3.5,-,N/A,,Clear,220,2013-05-23 12:55:00
7:15 AM,39.2,28.4,65,30.16,10.0,Calm,Calm,-,N/A,,Clear,0,2013-05-23 13:15:00
7:55 AM,44.6,26.6,49,30.16,10.0,Calm,Calm,-,N/A,,Clear,0,2013-05-23 13:55:00
8:15 AM,46.4,28.4,50,30.16,10.0,Calm,Calm,-,N/A,,Clear,0,2013-05-23 14:15:00
8:55 AM,51.8,28.4,41,30.15,10.0,Calm,Calm,-,N/A,,Clear,0,2013-05-23 14:55:00
9:35 AM,55.4,30.2,38,30.15,10.0,Calm,Calm,-,N/A,,Clear,0,2013-05-23 15:35:00
9:55 AM,59.0,30.2,34,30.13,10.0,Calm,Calm,-,N/A,,Clear,0,2013-05-23 15:55:00
10:15 AM,60.8,30.2,31,30.12,10.0,Calm,Calm,-,N/A,,Clear,0,2013-05-23 16:15:00
10:35 AM,64.4,28.4,26,30.12,10.0,North,3.5,-,N/A,,Clear,350,2013-05-23 16:35:00
10:55 AM,66.2,23.0,19,30.11,10.0,WNW,3.5,-,N/A,,Clear,300,2013-05-23 16:55:00
11:15 AM,68.0,21.2,17,30.10,10.0,Calm,Calm,-,N/A,,Clear,0,2013-05-23 17:15:00
11:35 AM,69.8,23.0,17,30.10,10.0,WNW,3.5,-,N/A,,Clear,290,2013-05-23 17:35:00
11:55 AM,69.8,21.2,16,30.09,10.0,WSW,6.9,-,N/A,,Clear,240,2013-05-23 17:55:00
12:15 PM,69.8,21.2,16,30.08,10.0,NW,4.6,-,N/A,,Partly Cloudy,310,2013-05-23 18:15:00
12:35 PM,71.6,21.2,15,30.08,10.0,South,18.4,27.6,N/A,,Clear,190,2013-05-23 18:35:00
1:15 PM,71.6,17.6,13,30.07,10.0,SSW,10.4,20.7,N/A,,Clear,210,2013-05-23 19:15:00
1:35 PM,73.4,17.6,12,30.07,10.0,SW,11.5,29.9,N/A,,Clear,230,2013-05-23 19:35:00
1:55 PM,73.4,17.6,12,30.06,10.0,West,10.4,25.3,N/A,,Clear,260,2013-05-23 19:55:00
2:15 PM,75.2,17.6,11,30.06,10.0,SW,21.9,32.2,N/A,,Clear,230,2013-05-23 20:15:00
2:35 PM,75.2,17.6,11,30.05,10.0,SW,12.7,26.5,N/A,,Clear,230,2013-05-23 20:35:00
2:55 PM,75.2,17.6,11,30.04,10.0,SW,23.0,32.2,N/A,,Clear,230,2013-05-23 20:55:00
3:15 PM,75.2,17.6,11,30.04,10.0,SW,17.3,26.5,N/A,,Clear,230,2013-05-23 21:15:00
3:35 PM,75.2,17.6,11,30.04,10.0,SW,17.3,31.1,N/A,,Clear,230,2013-05-23 21:35:00
3:55 PM,75.2,17.6,11,30.04,10.0,SW,18.4,32.2,N/A,,Clear,220,2013-05-23 21:55:00
4:15 PM,73.4,15.8,11,30.04,10.0,SSW,17.3,26.5,N/A,,Clear,200,2013-05-23 22:15:00
4:35 PM,75.2,15.8,11,30.04,10.0,SSW,16.1,21.9,N/A,,Clear,210,2013-05-23 22:35:00
4:55 PM,71.6,15.8,12,30.04,10.0,South,16.1,-,N/A,,Clear,190,2013-05-23 22:55:00
5:15 PM,75.2,17.6,11,30.04,10.0,SSW,13.8,-,N/A,,Clear,210,2013-05-23 23:15:00
5:35 PM,73.4,17.6,12,30.04,10.0,SSW,12.7,19.6,N/A,,Clear,210,2013-05-23 23:35:00
5:55 PM,73.4,15.8,11,30.04,10.0,SW,13.8,19.6,N/A,,Clear,230,2013-05-23 23:55:00
6:15 PM,73.4,15.8,11,30.04,10.0,SSW,12.7,20.7,N/A,,Clear,210,2013-05-24 00:15:00
6:35 PM,73.4,15.8,11,30.03,10.0,South,12.7,-,N/A,,Clear,190,2013-05-24 00:35:00
6:55 PM,73.4,15.8,11,30.03,10.0,South,18.4,23.0,N/A,,Clear,190,2013-05-24 00:55:00
7:15 PM,73.4,15.8,11,30.04,10.0,SW,17.3,23.0,N/A,,Clear,220,2013-05-24 01:15:00
7:35 PM,71.6,15.8,12,30.04,10.0,SSW,16.1,23.0,N/A,,Clear,200,2013-05-24 01:35:00
7:55 PM,69.8,15.8,13,30.06,10.0,SSW,11.5,-,N/A,,Clear,200,2013-05-24 01:55:00
8:15 PM,68.0,15.8,13,30.06,10.0,South,9.2,-,N/A,,Clear,190,2013-05-24 02:15:00
8:35 PM,64.4,15.8,15,30.07,10.0,SSE,5.8,-,N/A,,Clear,160,2013-05-24 02:35:00
8:55 PM,62.6,17.6,18,30.06,10.0,SSE,8.1,-,N/A,,Clear,160,2013-05-24 02:55:00
9:15 PM,59.0,19.4,22,30.07,10.0,South,6.9,-,N/A,,Clear,170,2013-05-24 03:15:00
9:35 PM,57.2,19.4,23,30.07,10.0,Calm,Calm,-,N/A,,Clear,0,2013-05-24 03:35:00
9:55 PM,60.8,19.4,20,30.09,10.0,SSW,5.8,-,N/A,,Clear,200,2013-05-24 03:55:00
10:15 PM,62.6,17.6,18,30.10,10.0,West,3.5,-,N/A,,Clear,280,2013-05-24 04:15:00
10:35 PM,55.4,17.6,23,30.11,10.0,North,6.9,-,N/A,,Clear,350,2013-05-24 04:35:00
11:15 PM,51.8,21.2,30,30.11,10.0,North,9.2,-,N/A,,Clear,360,2013-05-24 05:15:00
11:35 PM,51.8,21.2,30,30.12,10.0,NNW,6.9,-,N/A,,Clear,340,2013-05-24 05:35:00
11:55 PM,50.0,24.8,37,30.13,10.0,North,5.8,-,N/A,,Clear,10,2013-05-24 05:55:00